GW3806 Weather Reports


time (UTC)temp
F
wind
direction
speed
knots
gust
knots
rain 1hr
in
rain 24hr
in
rain mn
in
humidity
%
barometer
mb
20260502190319 62 286 4.3 4.3 0.00 0.00 0.00 32 1019.1
20260502185814 62 255 2.6 7.0 0.00 0.00 0.00 33 1019.1
20260502185310 60 248 1.7 7.0 0.00 0.00 0.00 29 1019.1
20260502184808 62 244 13.0 13.9 0.00 0.00 0.00 31 1019.0
20260502184303 62 266 4.3 13.9 0.00 0.00 0.00 33 1019.0
20260502183800 63 277 3.5 7.8 0.00 0.00 0.00 34 1019.1
20260502183256 62 239 2.6 13.9 0.00 0.00 0.00 33 1019.1
20260502182751 62 218 5.2 10.4 0.00 0.00 0.00 35 1019.3
20260502182247 61 254 6.1 8.7 0.00 0.00 0.00 31 1019.3
20260502181743 61 230 4.3 15.6 0.00 0.00 0.00 33 1019.3
20260502181237 61 261 3.5 13.9 0.00 0.00 0.00 31 1019.4
20260502180734 60 221 3.5 10.4 0.00 0.00 0.00 31 1019.4
20260502180231 62 249 3.5 13.0 0.00 0.00 0.00 35 1019.4
20260502170150 61 81 3.5 5.2 0.00 0.00 0.00 36 1019.5
20260502164137 61 216 4.3 4.3 0.00 0.00 0.00 37 1019.9
20260502163632 60 220 2.6 7.0 0.00 0.00 0.00 39 1019.6
20260502163129 60 180 1.7 4.3 0.00 0.00 0.00 37 1019.8
20260502162626 60 258 1.7 4.3 0.00 0.00 0.00 38 1019.9
20260502162123 58 216 3.5 6.1 0.00 0.00 0.00 36 1019.8
20260502161620 60 176 1.7 5.2 0.00 0.00 0.00 36 1019.6
20260502161118 58 250 2.6 4.3 0.00 0.00 0.00 36 1019.8
20260502160615 57 247 2.6 6.1 0.00 0.00 0.00 35 1019.6
20260502160113 57 251 1.7 4.3 0.00 0.00 0.00 34 1019.6
20260502152028 57 143 2.6 3.5 0.00 0.00 0.00 39 1019.4
20260502151524 57 225 0.0 2.6 0.00 0.00 0.00 40 1019.6
20260502151022 57 324 1.7 3.5 0.00 0.00 0.00 40 1019.5
20260502150520 58 243 1.7 1.7 0.00 0.00 0.00 40 1019.5
20260502130404 40 96 6.1 14.8 0.00 0.00 0.00 55 1018.7
20260502123347 39 90 0.0 10.4 0.00 0.00 0.00 55 1018.8
20260502122844 39 107 0.0 8.7 0.00 0.00 0.00 56 1018.5
20260502122339 37 96 5.2 12.2 0.00 0.00 0.00 60 1018.7
20260502121838 38 75 6.1 14.8 0.00 0.00 0.00 58 1018.8
20260502121335 39 78 5.2 12.2 0.00 0.00 0.00 56 1019.0
20260502120832 37 79 6.1 10.4 0.00 0.00 0.00 59 1018.8
20260502120328 39 86 4.3 11.3 0.00 0.00 0.00 55 1018.8
20260502115826 37 118 7.8 11.3 0.00 0.00 0.00 59 1018.9
20260502115323 39 101 6.1 9.6 0.00 0.00 0.00 56 1018.7
20260502114819 39 132 3.5 12.2 0.00 0.00 0.00 56 1018.8
20260502114316 37 94 4.3 11.3 0.00 0.00 0.00 60 1018.8
20260502113813 37 90 5.2 9.6 0.00 0.00 0.00 60 1018.9
20260502113311 37 99 7.0 13.9 0.00 0.00 0.00 59 1019.0
20260502112809 37 104 4.3 8.7 0.00 0.00 0.00 59 1018.8
20260502112306 38 84 7.0 13.0 0.00 0.00 0.00 59 1019.0
20260502111803 38 83 7.0 13.9 0.00 0.00 0.00 59 1019.0
20260502111301 38 86 7.0 13.9 0.00 0.00 0.00 60 1019.0
20260502110758 38 102 5.2 11.3 0.00 0.00 0.00 59 1019.0
20260502110256 37 100 7.8 11.3 0.00 0.00 0.00 61 1019.0
20260502105754 37 110 7.8 13.0 0.00 0.00 0.00 61 1019.1
20260502105249 37 119 7.8 11.3 0.00 0.00 0.00 60 1019.0
20260502104748 37 115 4.3 10.4 0.00 0.00 0.00 62 1019.1
20260502104245 36 116 10.4 10.4 0.00 0.00 0.00 63 1019.3
20260502103742 38 96 3.5 9.6 0.00 0.00 0.00 60 1019.0
20260502103240 39 109 4.3 10.4 0.00 0.00 0.00 56 1019.0
20260502102736 39 0 2.6 7.8 0.00 0.00 0.00 56 1018.9
20260502102233 39 111 2.6 7.8 0.00 0.00 0.00 58 1019.0
20260502101731 39 46 5.2 11.3 0.00 0.00 0.00 57 1018.9
20260502101229 39 79 4.3 9.6 0.00 0.00 0.00 57 1019.0
20260502100727 39 81 3.5 7.8 0.00 0.00 0.00 57 1019.0
20260502100225 39 98 4.3 11.3 0.00 0.00 0.00 59 1019.0
20260502091159 39 143 3.5 6.1 0.00 0.00 0.00 57 1019.1
20260502090656 40 94 4.3 7.0 0.00 0.00 0.00 56 1019.3
20260502090153 40 109 3.5 7.8 0.00 0.00 0.00 57 1019.0
20260502071049 41 23 3.5 11.3 0.00 0.00 0.00 57 1019.4
20260502070547 41 93 3.5 10.4 0.00 0.00 0.00 57 1019.4
20260502070045 40 102 1.7 6.1 0.00 0.00 0.00 58 1019.4
20260502065544 40 90 4.3 9.6 0.00 0.00 0.00 58 1019.6
20260502065040 40 36 3.5 10.4 0.00 0.00 0.00 58 1019.4
20260502064539 40 90 2.6 9.6 0.00 0.00 0.00 58 1019.5
20260502064035 41 109 4.3 9.6 0.00 0.00 0.00 57 1019.6
20260502063533 41 78 7.8 16.5 0.00 0.00 0.00 57 1019.5
20260502063031 41 98 7.8 8.7 0.00 0.00 0.00 56 1019.3
20260502062527 41 3 4.3 10.4 0.00 0.00 0.00 56 1019.5
20260502062026 41 93 6.1 12.2 0.00 0.00 0.00 58 1019.5
20260502061523 41 77 6.1 10.4 0.00 0.00 0.00 58 1019.3
20260502061015 41 98 6.1 9.6 0.00 0.00 0.00 58 1019.4
20260502060510 40 67 2.6 9.6 0.00 0.00 0.00 59 1019.5
20260502060007 41 90 4.3 7.8 0.00 0.00 0.00 58 1019.3
20260502055504 41 85 7.0 14.8 0.00 0.00 0.00 58 1019.3
20260502055004 41 71 6.1 10.4 0.00 0.00 0.00 57 1019.3
20260502054502 41 75 5.2 7.8 0.00 0.00 0.00 57 1019.4
20260502053958 41 83 2.6 7.0 0.00 0.00 0.00 57 1019.4
20260502053455 42 68 3.5 7.8 0.00 0.00 0.00 56 1019.5
20260502052953 42 64 3.5 9.6 0.00 0.00 0.00 56 1019.3
20260502052451 42 70 4.3 7.8 0.00 0.00 0.00 56 1019.3
20260502051949 42 97 4.3 8.7 0.00 0.00 0.00 55 1019.3
20260502051447 42 11 1.7 9.6 0.00 0.00 0.00 56 1019.3
20260502050944 42 77 2.6 7.8 0.00 0.00 0.00 56 1019.3
20260502050440 42 108 6.1 8.7 0.00 0.00 0.00 56 1019.4
20260502045938 42 346 0.9 9.6 0.00 0.00 0.00 56 1019.6
20260502045434 42 63 5.2 11.3 0.00 0.00 0.00 57 1019.6
20260502044931 42 57 2.6 10.4 0.00 0.00 0.00 57 1019.5
20260502044427 43 95 3.5 11.3 0.00 0.00 0.00 56 1019.6
20260502043924 42 82 1.7 8.7 0.00 0.00 0.00 56 1019.6
20260502043422 42 80 1.7 10.4 0.00 0.00 0.00 57 1019.5
20260502042921 42 72 4.3 8.7 0.00 0.00 0.00 57 1019.8
20260502042419 42 60 5.2 6.1 0.00 0.00 0.00 57 1019.8
20260502041915 43 90 5.2 9.6 0.00 0.00 0.00 57 1019.5
20260502041414 43 90 0.9 8.7 0.00 0.00 0.00 56 1019.6
20260502040910 43 109 2.6 6.1 0.00 0.00 0.00 56 1019.6
20260502040407 44 84 7.8 9.6 0.00 0.00 0.00 55 1019.4
20260502035903 44 85 5.2 10.4 0.00 0.00 0.00 55 1019.4
20260502035400 44 0 0.0 7.0 0.00 0.00 0.00 53 1019.4
20260502034857 44 80 4.3 4.3 0.00 0.00 0.00 55 1019.5
20260502034356 44 23 0.9 8.7 0.00 0.00 0.00 55 1019.4
20260502033854 44 100 3.5 11.3 0.00 0.00 0.00 56 1019.3
20260502033351 45 79 5.2 6.1 0.00 0.00 0.00 55 1019.4
20260502032847 45 112 2.6 9.6 0.00 0.00 0.00 53 1019.4
20260502032344 45 110 3.5 7.8 0.00 0.00 0.00 55 1019.3
20260502031841 45 58 2.6 10.4 0.00 0.00 0.00 55 1019.0
20260502031340 45 83 4.3 9.6 0.00 0.00 0.00 55 1019.0
20260502030838 46 64 2.6 11.3 0.00 0.00 0.00 55 1018.9
20260502030336 46 84 5.2 7.8 0.00 0.00 0.00 55 1019.0
20260502025832 46 84 7.0 9.6 0.00 0.00 0.00 55 1018.9
20260502025330 46 350 0.0 7.0 0.00 0.00 0.00 55 1018.9
20260502024828 46 77 2.6 6.1 0.00 0.00 0.00 55 1018.8
20260502024325 46 157 0.9 3.5 0.00 0.00 0.00 54 1018.9
20260502023823 47 95 1.7 6.1 0.00 0.00 0.00 54 1018.8
20260502023321 48 32 0.0 5.2 0.00 0.00 0.00 52 1018.9
20260502022819 49 11 0.9 3.5 0.00 0.00 0.00 51 1018.8
20260502022315 50 103 0.9 1.7 0.00 0.00 0.00 49 1018.8
20260502021811 51 84 0.9 2.6 0.00 0.00 0.00 47 1018.7
20260502021309 51 33 0.0 0.0 0.00 0.00 0.00 44 1018.7
20260502020806 52 15 0.0 0.9 0.00 0.00 0.00 44 1018.7
20260502020303 53 282 0.0 0.9 0.00 0.00 0.00 44 1018.7
20260502015800 53 59 0.0 1.7 0.00 0.00 0.00 42 1018.5
20260502015257 54 90 0.0 1.7 0.00 0.00 0.00 40 1018.9
20260502014755 55 282 0.9 2.6 0.00 0.00 0.00 41 1018.7
20260502014251 56 307 2.6 4.3 0.00 0.00 0.00 38 1018.7
20260502013747 57 294 2.6 4.3 0.00 0.00 0.00 36 1018.8
20260502013243 57 297 2.6 2.6 0.00 0.00 0.00 39 1018.7
20260502012740 58 342 0.0 1.7 0.00 0.00 0.00 33 1018.7
20260502012238 59 0 3.5 3.5 0.00 0.00 0.00 32 1018.8
20260502011735 60 346 0.9 1.7 0.00 0.00 0.00 34 1018.8
20260502011231 60 270 2.6 4.3 0.00 0.00 0.00 33 1018.8
20260502010729 60 270 0.0 2.6 0.00 0.00 0.00 33 1018.7
20260502010224 60 283 3.5 5.2 0.00 0.00 0.00 32 1018.8
20260502005722 61 237 1.7 4.3 0.00 0.00 0.00 31 1018.5
20260502005220 60 258 2.6 5.2 0.00 0.00 0.00 31 1018.7
20260502004716 61 254 2.6 4.3 0.00 0.00 0.00 34 1018.5
20260502004212 61 286 1.7 3.5 0.00 0.00 0.00 32 1018.5
20260502003710 61 286 1.7 1.7 0.00 0.00 0.00 33 1018.7
20260502003208 61 342 0.0 2.6 0.00 0.00 0.00 31 1018.5
20260502002703 61 3 1.7 5.2 0.00 0.00 0.00 33 1018.7
20260502002201 61 283 3.5 4.3 0.00 0.00 0.00 35 1018.7
20260502001658 62 304 3.5 4.3 0.00 0.00 0.00 37 1018.7
20260502001155 60 359 3.5 5.2 0.00 0.00 0.00 32 1018.4
20260502000653 62 240 0.0 2.6 0.00 0.00 0.00 32 1018.7
20260502000151 61 265 3.5 5.2 0.00 0.00 0.00 31 1018.8
20260501235646 61 278 2.6 6.1 0.00 0.00 0.00 33 1018.7
20260501235143 61 278 6.1 6.1 0.00 0.00 0.00 35 1018.7
20260501234638 61 211 2.6 5.2 0.00 0.00 0.00 31 1018.4
20260501234136 60 249 3.5 5.2 0.00 0.00 0.00 33 1018.5
20260501233634 60 250 4.3 6.1 0.00 0.00 0.00 32 1018.4
20260501233131 60 283 3.5 4.3 0.00 0.00 0.00 35 1018.3
20260501232627 60 279 6.1 10.4 0.00 0.00 0.00 34 1018.5
20260501232124 61 209 0.9 3.5 0.00 0.00 0.00 33 1018.5
20260501231622 62 340 0.9 2.6 0.00 0.00 0.00 32 1018.4
20260501231120 60 177 2.6 6.1 0.00 0.00 0.00 35 1018.4
20260501230618 60 244 3.5 5.2 0.00 0.00 0.00 34 1018.5
20260501230116 61 237 3.5 3.5 0.00 0.00 0.00 35 1018.4
20260501225613 61 274 4.3 7.0 0.00 0.00 0.00 35 1018.4
20260501225109 61 190 1.7 3.5 0.00 0.00 0.00 33 1018.5
20260501224607 60 261 2.6 4.3 0.00 0.00 0.00 33 1018.7
20260501224103 61 241 5.2 5.2 0.00 0.00 0.00 36 1018.5
20260501223600 59 270 2.6 7.0 0.00 0.00 0.00 32 1018.5
20260501223056 60 254 0.0 7.8 0.00 0.00 0.00 38 1018.5
20260501222553 59 328 0.0 4.3 0.00 0.00 0.00 33 1018.7
20260501222050 59 270 2.6 7.0 0.00 0.00 0.00 34 1018.8
20260501221546 60 322 5.2 7.8 0.00 0.00 0.00 36 1018.8
20260501221044 61 272 5.2 6.1 0.00 0.00 0.00 38 1018.7
20260501220542 59 200 0.0 5.2 0.00 0.00 0.00 33 1019.0
20260501220038 59 237 3.5 8.7 0.00 0.00 0.00 34 1018.9
20260501215534 62 304 1.7 6.1 0.00 0.00 0.00 37 1018.8
20260501215030 59 320 2.6 4.3 0.00 0.00 0.00 35 1018.9
20260501214525 58 243 4.3 9.6 0.00 0.00 0.00 35 1019.0
20260501214021 59 245 7.8 10.4 0.00 0.00 0.00 36 1019.0
20260501213519 59 290 2.6 7.8 0.00 0.00 0.00 37 1019.0
20260501213015 59 243 2.6 5.2 0.00 0.00 0.00 36 1019.3
20260501212511 59 260 1.7 7.8 0.00 0.00 0.00 37 1019.1
20260501212008 61 293 2.6 4.3 0.00 0.00 0.00 40 1019.1
20260501211505 59 231 7.0 9.6 0.00 0.00 0.00 38 1019.0
20260501211003 58 216 4.3 9.6 0.00 0.00 0.00 35 1019.0
20260501210458 60 300 2.6 8.7 0.00 0.00 0.00 38 1019.3
20260501205955 59 237 2.6 7.0 0.00 0.00 0.00 36 1019.1
20260501205452 59 270 4.3 13.0 0.00 0.00 0.00 37 1019.3
20260501204949 59 279 7.0 7.0 0.00 0.00 0.00 39 1019.3
20260501204445 58 229 2.6 7.8 0.00 0.00 0.00 38 1019.1
20260501203942 57 239 4.3 7.8 0.00 0.00 0.00 38 1019.3
20260501203439 59 346 1.7 5.2 0.00 0.00 0.00 39 1019.3
20260501202936 59 286 3.5 5.2 0.00 0.00 0.00 37 1019.3
20260501202433 58 277 7.0 7.8 0.00 0.00 0.00 40 1019.1
20260501201929 58 346 2.6 6.1 0.00 0.00 0.00 38 1019.3
20260501201426 59 324 1.7 6.1 0.00 0.00 0.00 42 1019.3
20260501200923 59 317 3.5 5.2 0.00 0.00 0.00 41 1019.4
20260501200420 56 142 4.3 6.1 0.00 0.00 0.00 39 1019.5
20260501195918 56 251 0.9 6.1 0.00 0.00 0.00 37 1019.6
20260501195415 57 21 4.3 5.2 0.00 0.00 0.00 37 1019.5
20260501194910 56 267 2.6 7.8 0.00 0.00 0.00 40 1019.4
20260501194406 56 287 5.2 7.8 0.00 0.00 0.00 39 1019.5
20260501193902 57 236 3.5 4.3 0.00 0.00 0.00 44 1019.4
20260501193401 57 233 3.5 5.2 0.00 0.00 0.00 39 1019.4
20260501192858 57 236 7.8 7.8 0.00 0.00 0.00 40 1019.4
20260501192355 56 249 4.3 7.0 0.00 0.00 0.00 42 1019.4
20260501191851 57 273 3.5 8.7 0.00 0.00 0.00 40 1019.8
20260501191348 56 188 0.0 5.2 0.00 0.00 0.00 42 1019.6
20260501190845 55 22 2.6 5.2 0.00 0.00 0.00 37 1019.6